カタログに戻る

STARLINK-30706

運用中通信VLEO
NORAD 57947·PAYLOAD·🇺🇸 United States

打ち上げ Sep 25, 2023 から Vandenberg Space Force Base

Loading…

次のパス (今後24時間)

TLE

最新Source: CelesTrak SupGP

元期: Sep 14, 2026, 22:29 UTC

1 57947C 23148N   26257.93729167  .00013332  00000+0  39377-3 0  2576
2 57947  53.1587 221.4375 0001662  93.3142 158.9432 15.34393556    11

AllMySatでSTARLINK-30706をリアルタイム追跡

Download on the App Store